{"data":{"norad_id":62471,"intl_designator":"2024-254K","name":"STARLINK-11477 [DTC]","alt_names":[],"object_type":"PAYLOAD","status":"ACTIVE","operator":null,"country":"US","launch_date":"2024-12-31","launch_site_code":"AFETR","launch_vehicle":null,"mission":null,"orbit_class":"UNKNOWN","rcs_meters":null,"size_class":null,"mass_kg":null,"dimensions":null,"purposes":["comms"],"wikipedia_slug":null,"has_3d_model":false,"image_url":null,"decayed_at":null,"tle_current":{"epoch":"2026-05-24T23:45:44.646912Z","epoch_age_seconds":82821,"freshness":"FRESH","line1":"1 62471U 24254K   26144.99010008  .00198080  00000+0  15106-2 0  9991","line2":"2 62471  42.9985 122.8537 0001893 256.4165 103.6491 15.70840111 81390","mean_motion":15.70840111,"eccentricity":0.0001893,"inclination_deg":42.9985,"raan_deg":122.8537,"arg_perigee_deg":256.4165,"mean_anomaly_deg":103.6491,"bstar":0.0015106,"rev_number":8139,"period_min":91.670692002084,"perigee_km":355.21987852061,"apogee_km":357.76961009901,"semimajor_km":6734.6317443098,"source":"CELESTRAK","updated_at":"2026-05-25T13:38:19.693143Z"}}}